Location: Buffign�court
(47.8126°N, 6.0176°E)
Time: 20:25:54
(UTC+00:00)

Spot 2 Rocket - Pass Details

Date: 16 June 2021
Orbit: 758 x 771 km, 98.5° (Epoch: 23 July)

Event Time Altitude Azimuth Distance (km) Brightness Sun altitude
Exits shadow 21:17:51 10° 184° (S) 2,266 5.5 -12.3°
Maximum altitude 21:22:41 51° 260° (W) 961 4.2 -12.7°
Drops below altitude 10° 21:27:39 10° 336° (NNW) 2,314 7.5 -13.1°
Sets 21:30:03 0° 342° (NNW) 3,247 8.5 -13.3°
